Location: Newark
(47.4417°N, 1.1394°W)
Time: 12:48:25
(UTC+00:00)

Envisat - Pass Details

Date: 19 November 2019
Orbit: 764 x 766 km, 98.1° (Epoch: 13 December)

Event Time Altitude Azimuth Distance (km) Brightness Sun altitude
Rises 17:16:31 0° 144° (SE) 3,222 6.1 -8.8°
Reaches altitude 10° 17:18:54 10° 138° (SE) 2,300 5.3 -9.2°
Maximum altitude 17:23:40 43° 68° (ENE) 1,073 3.3 -10.0°
Drops below altitude 10° 17:28:28 10° 358° (N) 2,314 5.3 -10.7°
Sets 17:30:52 0° 352° (N) 3,245 6.2 -11.1°
